Home   Weather   Sapporo   Past weeks

Flag for Japan Past Weather in Sapporo, Japan — Yesterday and Last 2 Weeks

Now
61 °F

Passing clouds.


Feels Like: 61 °F
Forecast: 49 / 70 °F
Wind: 9 mph from Northwest

Location: Sapporo

Current Time: Sep 29, 2016 at 7:23:36 PM

Latest Report: Sep 29, 2016 at 6:00 PM


Visibility: 13 mi

Pressure: 29.90 "Hg

Humidity: 51%

Dew Point: 43 °F

Location of SapporoLocation

Past Weather in Sapporo — Graph

°F

Sapporo Temperature Yesterday

Maximum temperature yesterday: 73 °F (at 10:00 AM)
Minimum temperature yesterday: 62 °F (at 9:00 PM)
Average temperature yesterday: 66 °F

High & Low Weather Summary for the Past Weeks

 TemperatureHumidityPressure
High79 °F (Sep 27, 1:00 PM)97% (Sep 24, 5:00 AM)30.27 "Hg (Sep 24, 5:00 AM)
Low50 °F (Sep 20, 5:00 AM)31% (Sep 27, 1:00 PM)29.76 "Hg (Sep 28, 7:00 AM)
Average65 °F71%30.00 "Hg
* Reported Sep 14 6:00 PM — Sep 29 6:00 PM, Sapporo, Weather by CustomWeather, © 2016

Note: Actual official high and low records may vary slightly from our data, if they occured in-between our weather recording intervals... More about our weather records

Advertising

Sapporo Weather History for the Previous 24 Hours

Scroll right to see more
 ConditionsComfort  
Time TempWeatherWind HumidityBarometerVisibility
6:00 PM
Thu, Sep 29
61 °FPassing clouds.9 mph51%29.90 "Hg12 mi
4:00 PM63 °FMild.17 mph52%29.87 "HgN/A
3:00 PM65 °FPassing clouds.15 mph49%29.85 "Hg19 mi
2:00 PM65 °FMild.13 mph51%29.85 "HgN/A
1:00 PM64 °FMild.13 mph59%29.85 "HgN/A
12:00 PM66 °FPartly sunny.14 mph51%29.85 "Hg16 mi
11:00 AM66 °FMild.9 mph53%29.86 "HgN/A
10:00 AM65 °FMild.12 mph64%29.88 "HgN/A
9:00 AM62 °FOvercast.3 mph70%29.90 "Hg12 mi
8:00 AM60 °FCool.2 mph80%29.89 "HgN/A
7:00 AM59 °FCool.6 mph84%29.88 "HgN/A
6:00 AM58 °FLow clouds.3 mph83%29.88 "Hg12 mi
5:00 AM58 °FCool.5 mph85%29.87 "HgN/A
4:00 AM59 °FCool.3 mph86%29.86 "HgN/A
3:00 AM59 °FPassing clouds.3 mph85%29.87 "Hg9 mi
2:00 AM60 °FCool.3 mph87%29.87 "HgN/A
1:00 AM60 °FCool.2 mph88%29.88 "HgN/A
12:00 AM60 °FCool.1 mph89%29.88 "HgN/A
11:00 PM
Wed, Sep 28
62 °FCool.6 mph79%29.88 "HgN/A
10:00 PM62 °FCool.3 mph82%29.88 "HgN/A
9:00 PM62 °FSprinkles. Overcast.5 mph85%29.87 "Hg6 mi
8:00 PM62 °FCool.5 mph84%29.87 "HgN/A
7:00 PM63 °FMild.3 mph84%29.86 "HgN/A
Weather by CustomWeather, © 2016

See weather overviewHow to use our weather pages